owner,sensor,date,latitude,longitude,vertical_datum,direction_of_sea_water_velocity,sea_water_speed,upward_sea_water_velocity,qcFlag 
TABS,ioos:station:wmo:42046:1,2002-11-01T00:00:00Z,27.8903,-94.0367,2.0,290.1180727,19.27607066,-99999.0,'11111222,11111222,99999999' 
TABS,ioos:station:wmo:42046:1,2002-11-01T00:30:00Z,27.8903,-94.0367,2.0,279.8201513,23.98134692,-99999.0,'11111222,11111222,99999999' 
TABS,ioos:station:wmo:42046:1,2002-11-01T01:00:00Z,27.8903,-94.0367,2.0,294.2408029,24.69757073,-99999.0,'11111222,11111222,99999999' 
TABS,ioos:station:wmo:42046:1,2002-11-01T01:30:00Z,27.8903,-94.0367,2.0,291.3517177,26.47725817,-99999.0,'11111222,11111222,99999999' 
TABS,ioos:station:wmo:42046:1,2002-11-01T02:00:00Z,27.8903,-94.0367,2.0,284.402603,23.92177669,-99999.0,'11111222,11111222,99999999' 
TABS,ioos:station:wmo:42046:1,2002-11-01T02:30:00Z,27.8903,-94.0367,2.0,291.5084846,29.02084768,-99999.0,'11111222,11111222,99999999' 
TABS,ioos:station:wmo:42046:1,2002-11-01T03:00:00Z,27.8903,-94.0367,2.0,285.4691163,26.58293626,-99999.0,'11111222,11111222,99999999' 
TABS,ioos:station:wmo:42046:1,2002-11-01T03:30:00Z,27.8903,-94.0367,2.0,292.899593,28.39802986,-99999.0,'11111222,11111222,99999999' 
TABS,ioos:station:wmo:42046:1,2002-11-01T04:00:00Z,27.8903,-94.0367,2.0,294.7219846,27.66553451,-99999.0,'11111222,11111222,99999999' 
TABS,ioos:station:wmo:42046:1,2002-11-01T04:30:00Z,27.8903,-94.0367,2.0,296.3640201,25.44661078,-99999.0,'11111222,11111222,99999999' 
TABS,ioos:station:wmo:42046:1,2002-11-01T05:00:00Z,27.8903,-94.0367,2.0,290.6187506,27.97168032,-99999.0,'11111222,11111222,99999999' 
TABS,ioos:station:wmo:42046:1,2002-11-01T05:30:00Z,27.8903,-94.0367,2.0,285.1297376,25.17250286,-99999.0,'11111222,11111222,99999999' 
TABS,ioos:station:wmo:42046:1,2002-11-01T06:00:00Z,27.8903,-94.0367,2.0,286.8849683,26.64878234,-99999.0,'11111222,11111222,99999999' 
TABS,ioos:station:wmo:42046:1,2002-11-01T06:30:00Z,27.8903,-94.0367,2.0,296.5131329,24.50731523,-99999.0,'11111222,11111222,99999999' 
TABS,ioos:station:wmo:42046:1,2002-11-01T07:00:00Z,27.8903,-94.0367,2.0,290.8762209,22.64664434,-99999.0,'11111222,11111222,99999999' 
TABS,ioos:station:wmo:42046:1,2002-11-01T07:30:00Z,27.8903,-94.0367,2.0,291.2344245,23.4414718,-99999.0,'11111222,11111222,99999999' 
TABS,ioos:station:wmo:42046:1,2002-11-01T08:00:00Z,27.8903,-94.0367,2.0,292.2206369,25.14753467,-99999.0,'11111222,11111222,99999999' 
TABS,ioos:station:wmo:42046:1,2002-11-01T08:30:00Z,27.8903,-94.0367,2.0,288.336001,23.71395581,-99999.0,'11111222,11111222,99999999' 
TABS,ioos:station:wmo:42046:1,2002-11-01T09:00:00Z,27.8903,-94.0367,2.0,294.32465,22.18981748,-99999.0,'11111222,11111222,99999999' 
TABS,ioos:station:wmo:42046:1,2002-11-01T09:30:00Z,27.8903,-94.0367,2.0,289.0276554,22.33003583,-99999.0,'11111222,11111222,99999999' 
TABS,ioos:station:wmo:42046:1,2002-11-01T10:00:00Z,27.8903,-94.0367,2.0,284.6008276,22.41380378,-99999.0,'11111222,11111222,99999999' 
TABS,ioos:station:wmo:42046:1,2002-11-01T10:30:00Z,27.8903,-94.0367,2.0,292.7481014,21.02543698,-99999.0,'11111222,11111222,99999999' 
TABS,ioos:station:wmo:42046:1,2002-11-01T11:00:00Z,27.8903,-94.0367,2.0,289.2486585,20.71816836,-99999.0,'11111222,11111222,99999999' 
TABS,ioos:station:wmo:42046:1,2002-11-01T11:30:00Z,27.8903,-94.0367,2.0,279.6177388,20.05181787,-99999.0,'11111222,11111222,99999999' 
TABS,ioos:station:wmo:42046:1,2002-11-01T12:00:00Z,27.8903,-94.0367,2.0,294.0908951,19.99120056,-99999.0,'11111222,11111222,99999999' 
TABS,ioos:station:wmo:42046:1,2002-11-01T12:30:00Z,27.8903,-94.0367,2.0,305.0829838,26.93310231,-99999.0,'11111222,11111222,99999999' 
TABS,ioos:station:wmo:42046:1,2002-11-01T13:00:00Z,27.8903,-94.0367,2.0,305.6993262,26.42551797,-99999.0,'11111222,11111222,99999999' 
TABS,ioos:station:wmo:42046:1,2002-11-01T13:30:00Z,27.8903,-94.0367,2.0,310.2167793,25.35323451,-99999.0,'11111222,11111222,99999999' 
TABS,ioos:station:wmo:42046:1,2002-11-01T14:00:00Z,27.8903,-94.0367,2.0,309.3767147,24.10105807,-99999.0,'11111222,11111222,99999999' 
TABS,ioos:station:wmo:42046:1,2002-11-01T14:30:00Z,27.8903,-94.0367,2.0,308.3428284,23.96991656,-99999.0,'11111222,11111222,99999999' 
TABS,ioos:station:wmo:42046:1,2002-11-01T15:00:00Z,27.8903,-94.0367,2.0,310.1031421,24.1864921,-99999.0,'11111222,11111222,99999999' 
TABS,ioos:station:wmo:42046:1,2002-11-01T15:30:00Z,27.8903,-94.0367,2.0,308.7278735,22.45780265,-99999.0,'11111222,11111222,99999999' 
TABS,ioos:station:wmo:42046:1,2002-11-01T16:00:00Z,27.8903,-94.0367,2.0,305.2892374,20.07964392,-99999.0,'11111222,11111222,99999999' 
TABS,ioos:station:wmo:42046:1,2002-11-01T16:30:00Z,27.8903,-94.0367,2.0,300.3679869,22.25314585,-99999.0,'11111222,11111222,99999999' 
TABS,ioos:station:wmo:42046:1,2002-11-01T17:00:00Z,27.8903,-94.0367,2.0,289.4583544,21.25389376,-99999.0,'11111222,11111222,99999999' 
TABS,ioos:station:wmo:42046:1,2002-11-01T17:30:00Z,27.8903,-94.0367,2.0,297.2068012,19.57576563,-99999.0,'11111222,11111222,99999999' 
TABS,ioos:station:wmo:42046:1,2002-11-01T18:00:00Z,27.8903,-94.0367,2.0,290.042264,21.65114316,-99999.0,'11111222,11111222,99999999' 
TABS,ioos:station:wmo:42046:1,2002-11-01T18:30:00Z,27.8903,-94.0367,2.0,285.7266209,21.54653568,-99999.0,'11111222,11111222,99999999' 
TABS,ioos:station:wmo:42046:1,2002-11-01T19:00:00Z,27.8903,-94.0367,2.0,272.0577543,22.28436447,-99999.0,'11111222,11111222,99999999' 
TABS,ioos:station:wmo:42046:1,2002-11-01T19:30:00Z,27.8903,-94.0367,2.0,273.0759596,22.55248323,-99999.0,'11111222,11111222,99999999' 
TABS,ioos:station:wmo:42046:1,2002-11-01T20:00:00Z,27.8903,-94.0367,2.0,276.8821285,23.36835467,-99999.0,'11111222,11111222,99999999' 
TABS,ioos:station:wmo:42046:1,2002-11-01T20:30:00Z,27.8903,-94.0367,2.0,270.9020939,24.78306882,-99999.0,'11111222,11111222,99999999' 
TABS,ioos:station:wmo:42046:1,2002-11-01T21:00:00Z,27.8903,-94.0367,2.0,274.3268198,24.92101322,-99999.0,'11111222,11111222,99999999' 
TABS,ioos:station:wmo:42046:1,2002-11-01T21:30:00Z,27.8903,-94.0367,2.0,283.7453003,27.18859504,-99999.0,'11111222,11111222,99999999' 
TABS,ioos:station:wmo:42046:1,2002-11-01T22:00:00Z,27.8903,-94.0367,2.0,275.7380497,29.50783116,-99999.0,'11111222,11111222,99999999' 
TABS,ioos:station:wmo:42046:1,2002-11-01T22:30:00Z,27.8903,-94.0367,2.0,277.8138373,29.93794415,-99999.0,'11111222,11111222,99999999' 
TABS,ioos:station:wmo:42046:1,2002-11-01T23:00:00Z,27.8903,-94.0367,2.0,282.2865511,30.73389822,-99999.0,'11111222,11111222,99999999' 
TABS,ioos:station:wmo:42046:1,2002-11-01T23:30:00Z,27.8903,-94.0367,2.0,283.0927241,29.44539523,-99999.0,'11111222,11111222,99999999' 
TABS,ioos:station:wmo:42046:1,2002-11-02T00:00:00Z,27.8903,-94.0367,2.0,273.2149612,13.73160588,-99999.0,'11111222,11111222,99999999' 
TABS,ioos:station:wmo:42046:1,2002-11-02T00:30:00Z,27.8903,-94.0367,2.0,285.754384,30.01757152,-99999.0,'11111222,11111222,99999999' 
TABS,ioos:station:wmo:42046:1,2002-11-02T01:00:00Z,27.8903,-94.0367,2.0,286.6402226,30.48666922,-99999.0,'11111222,11111222,99999999' 
TABS,ioos:station:wmo:42046:1,2002-11-02T01:30:00Z,27.8903,-94.0367,2.0,289.2157831,32.96664071,-99999.0,'11111222,11111222,99999999' 
TABS,ioos:station:wmo:42046:1,2002-11-02T02:00:00Z,27.8903,-94.0367,2.0,287.4842168,32.38618533,-99999.0,'11111222,11111222,99999999' 
TABS,ioos:station:wmo:42046:1,2002-11-02T02:30:00Z,27.8903,-94.0367,2.0,288.8270177,31.91761426,-99999.0,'11111222,11111222,99999999' 
TABS,ioos:station:wmo:42046:1,2002-11-02T03:00:00Z,27.8903,-94.0367,2.0,284.8829411,33.99022507,-99999.0,'11111222,11111222,99999999' 
TABS,ioos:station:wmo:42046:1,2002-11-02T03:30:00Z,27.8903,-94.0367,2.0,292.7246089,32.5139001,-99999.0,'11111222,11111222,99999999' 
TABS,ioos:station:wmo:42046:1,2002-11-02T04:00:00Z,27.8903,-94.0367,2.0,297.5023694,33.91226917,-99999.0,'11111222,11111222,99999999' 
TABS,ioos:station:wmo:42046:1,2002-11-02T04:30:00Z,27.8903,-94.0367,2.0,296.7747355,34.2746787,-99999.0,'11111222,11111222,99999999' 
TABS,ioos:station:wmo:42046:1,2002-11-02T05:00:00Z,27.8903,-94.0367,2.0,303.6288676,33.56770174,-99999.0,'11111222,11111222,99999999' 
TABS,ioos:station:wmo:42046:1,2002-11-02T05:30:00Z,27.8903,-94.0367,2.0,303.3992018,28.37605505,-99999.0,'11111222,11111222,99999999' 
TABS,ioos:station:wmo:42046:1,2002-11-02T06:00:00Z,27.8903,-94.0367,2.0,304.9213016,28.40443099,-99999.0,'11111222,11111222,99999999' 
TABS,ioos:station:wmo:42046:1,2002-11-02T06:30:00Z,27.8903,-94.0367,2.0,313.003766,28.41465819,-99999.0,'11111222,11111222,99999999' 
TABS,ioos:station:wmo:42046:1,2002-11-02T07:00:00Z,27.8903,-94.0367,2.0,316.0685111,28.82668208,-99999.0,'11111222,11111222,99999999' 
TABS,ioos:station:wmo:42046:1,2002-11-02T07:30:00Z,27.8903,-94.0367,2.0,307.8032165,29.96997331,-99999.0,'11111222,11111222,99999999' 
TABS,ioos:station:wmo:42046:1,2002-11-02T08:00:00Z,27.8903,-94.0367,2.0,321.4016877,26.3199791,-99999.0,'11111222,11111222,99999999' 
TABS,ioos:station:wmo:42046:1,2002-11-02T08:30:00Z,27.8903,-94.0367,2.0,318.5960124,27.39775356,-99999.0,'11111222,11111222,99999999' 
TABS,ioos:station:wmo:42046:1,2002-11-02T09:00:00Z,27.8903,-94.0367,2.0,319.8307244,29.22244685,-99999.0,'11111222,11111222,99999999' 
TABS,ioos:station:wmo:42046:1,2002-11-02T09:30:00Z,27.8903,-94.0367,2.0,326.7398133,27.00356458,-99999.0,'11111222,11111222,99999999' 
TABS,ioos:station:wmo:42046:1,2002-11-02T10:00:00Z,27.8903,-94.0367,2.0,325.8978797,30.4455087,-99999.0,'11111222,11111222,99999999' 
TABS,ioos:station:wmo:42046:1,2002-11-02T10:30:00Z,27.8903,-94.0367,2.0,329.3036834,24.64289959,-99999.0,'11111222,11111222,99999999' 
TABS,ioos:station:wmo:42046:1,2002-11-02T11:00:00Z,27.8903,-94.0367,2.0,326.252606,24.82284633,-99999.0,'11111222,11111222,99999999' 
TABS,ioos:station:wmo:42046:1,2002-11-02T11:30:00Z,27.8903,-94.0367,2.0,329.7077273,22.83831868,-99999.0,'11111222,11111222,99999999' 
TABS,ioos:station:wmo:42046:1,2002-11-02T12:00:00Z,27.8903,-94.0367,2.0,324.5716558,13.43825137,-99999.0,'11111222,11111222,99999999' 
TABS,ioos:station:wmo:42046:1,2002-11-02T12:30:00Z,27.8903,-94.0367,2.0,320.9979814,22.46755883,-99999.0,'11111222,11111222,99999999' 
TABS,ioos:station:wmo:42046:1,2002-11-02T13:00:00Z,27.8903,-94.0367,2.0,324.1348645,19.50899792,-99999.0,'11111222,11111222,99999999' 
TABS,ioos:station:wmo:42046:1,2002-11-02T13:30:00Z,27.8903,-94.0367,2.0,331.5341571,19.00809564,-99999.0,'11111222,11111222,99999999' 
TABS,ioos:station:wmo:42046:1,2002-11-02T14:00:00Z,27.8903,-94.0367,2.0,327.5737365,22.64004638,-99999.0,'11111222,11111222,99999999' 
TABS,ioos:station:wmo:42046:1,2002-11-02T14:30:00Z,27.8903,-94.0367,2.0,326.7497555,18.43877707,-99999.0,'11111222,11111222,99999999' 
TABS,ioos:station:wmo:42046:1,2002-11-02T15:00:00Z,27.8903,-94.0367,2.0,332.3274023,23.36233293,-99999.0,'11111222,11111222,99999999' 
TABS,ioos:station:wmo:42046:1,2002-11-02T15:30:00Z,27.8903,-94.0367,2.0,338.0880865,24.9742127,-99999.0,'11111222,11111222,99999999' 
TABS,ioos:station:wmo:42046:1,2002-11-02T16:00:00Z,27.8903,-94.0367,2.0,335.5879954,20.95332909,-99999.0,'11111222,11111222,99999999' 
TABS,ioos:station:wmo:42046:1,2002-11-02T16:30:00Z,27.8903,-94.0367,2.0,338.702024,20.51084104,-99999.0,'11111222,11111222,99999999' 
TABS,ioos:station:wmo:42046:1,2002-11-02T17:00:00Z,27.8903,-94.0367,2.0,337.205322,19.38393665,-99999.0,'11111222,11111222,99999999' 
TABS,ioos:station:wmo:42046:1,2002-11-02T17:30:00Z,27.8903,-94.0367,2.0,340.5376904,19.74843791,-99999.0,'11111222,11111222,99999999' 
TABS,ioos:station:wmo:42046:1,2002-11-02T18:00:00Z,27.8903,-94.0367,2.0,337.302883,18.76309409,-99999.0,'11111222,11111222,99999999' 
TABS,ioos:station:wmo:42046:1,2002-11-02T18:30:00Z,27.8903,-94.0367,2.0,337.7360637,17.47264433,-99999.0,'11111222,11111222,99999999' 
TABS,ioos:station:wmo:42046:1,2002-11-02T19:00:00Z,27.8903,-94.0367,2.0,334.6312629,16.71154092,-99999.0,'11111222,11111222,99999999' 
TABS,ioos:station:wmo:42046:1,2002-11-02T19:30:00Z,27.8903,-94.0367,2.0,332.5650748,12.95727209,-99999.0,'11111222,11111222,99999999' 
TABS,ioos:station:wmo:42046:1,2002-11-02T20:00:00Z,27.8903,-94.0367,2.0,336.2051098,12.86347542,-99999.0,'11111222,11111222,99999999' 
TABS,ioos:station:wmo:42046:1,2002-11-02T20:30:00Z,27.8903,-94.0367,2.0,331.7376959,15.24773098,-99999.0,'11111222,11111222,99999999' 
TABS,ioos:station:wmo:42046:1,2002-11-02T21:00:00Z,27.8903,-94.0367,2.0,339.8045585,13.58523463,-99999.0,'11111222,11111222,99999999' 
TABS,ioos:station:wmo:42046:1,2002-11-02T21:30:00Z,27.8903,-94.0367,2.0,333.0524054,10.04016932,-99999.0,'11111222,11111222,99999999' 
TABS,ioos:station:wmo:42046:1,2002-11-02T22:00:00Z,27.8903,-94.0367,2.0,338.1811189,11.99963333,-99999.0,'11111222,11111222,99999999' 
TABS,ioos:station:wmo:42046:1,2002-11-02T22:30:00Z,27.8903,-94.0367,2.0,326.3278079,9.036066622,-99999.0,'11133222,11111222,99999999' 
TABS,ioos:station:wmo:42046:1,2002-11-02T23:00:00Z,27.8903,-94.0367,2.0,324.8271706,11.14488672,-99999.0,'11111222,11111222,99999999' 
TABS,ioos:station:wmo:42046:1,2002-11-02T23:30:00Z,27.8903,-94.0367,2.0,322.3845141,8.142689973,-99999.0,'11133222,11111222,99999999' 
TABS,ioos:station:wmo:42046:1,2002-11-03T00:00:00Z,27.8903,-94.0367,2.0,329.7820004,5.404377855,-99999.0,'11133222,11111222,99999999' 
TABS,ioos:station:wmo:42046:1,2002-11-03T00:30:00Z,27.8903,-94.0367,2.0,334.9344944,9.913647159,-99999.0,'11133222,11111222,99999999' 
TABS,ioos:station:wmo:42046:1,2002-11-03T01:00:00Z,27.8903,-94.0367,2.0,314.8776271,9.906588717,-99999.0,'11133222,11111222,99999999' 
TABS,ioos:station:wmo:42046:1,2002-11-03T01:30:00Z,27.8903,-94.0367,2.0,313.4152194,13.03696667,-99999.0,'11111222,11111222,99999999' 
TABS,ioos:station:wmo:42046:1,2002-11-03T02:00:00Z,27.8903,-94.0367,2.0,314.8696531,12.40268519,-99999.0,'11111222,11111222,99999999' 
TABS,ioos:station:wmo:42046:1,2002-11-03T02:30:00Z,27.8903,-94.0367,2.0,313.9797501,14.68893801,-99999.0,'11111222,11111222,99999999' 
TABS,ioos:station:wmo:42046:1,2002-11-03T03:00:00Z,27.8903,-94.0367,2.0,307.1024738,16.77613782,-99999.0,'11111222,11111222,99999999' 
TABS,ioos:station:wmo:42046:1,2002-11-03T03:30:00Z,27.8903,-94.0367,2.0,319.7299944,17.83740452,-99999.0,'11111222,11111222,99999999' 
TABS,ioos:station:wmo:42046:1,2002-11-03T04:00:00Z,27.8903,-94.0367,2.0,322.8813176,17.4821652,-99999.0,'11111222,11111222,99999999' 
TABS,ioos:station:wmo:42046:1,2002-11-03T04:30:00Z,27.8903,-94.0367,2.0,325.4701454,19.1059284,-99999.0,'11111222,11111222,99999999' 
TABS,ioos:station:wmo:42046:1,2002-11-03T05:00:00Z,27.8903,-94.0367,2.0,332.6265418,20.59623752,-99999.0,'11111222,11111222,99999999' 
TABS,ioos:station:wmo:42046:1,2002-11-03T05:30:00Z,27.8903,-94.0367,2.0,330.8790773,20.05512403,-99999.0,'11111222,11111222,99999999' 
TABS,ioos:station:wmo:42046:1,2002-11-03T06:00:00Z,27.8903,-94.0367,2.0,336.2576663,18.25504314,-99999.0,'11111222,11111222,99999999' 
TABS,ioos:station:wmo:42046:1,2002-11-03T06:30:00Z,27.8903,-94.0367,2.0,339.2529601,19.98605764,-99999.0,'11111222,11111222,99999999' 
TABS,ioos:station:wmo:42046:1,2002-11-03T07:00:00Z,27.8903,-94.0367,2.0,341.187989,15.84651697,-99999.0,'11111222,11111222,99999999' 
TABS,ioos:station:wmo:42046:1,2002-11-03T07:30:00Z,27.8903,-94.0367,2.0,337.4634756,14.32386121,-99999.0,'11111222,11111222,99999999' 
TABS,ioos:station:wmo:42046:1,2002-11-03T08:00:00Z,27.8903,-94.0367,2.0,351.4751403,14.97546326,-99999.0,'11111222,11111222,99999999' 
TABS,ioos:station:wmo:42046:1,2002-11-03T08:30:00Z,27.8903,-94.0367,2.0,340.8888208,17.40955198,-99999.0,'11111222,11111222,99999999' 
TABS,ioos:station:wmo:42046:1,2002-11-03T09:00:00Z,27.8903,-94.0367,2.0,326.3369143,11.906641,-99999.0,'11111222,11111222,99999999' 
TABS,ioos:station:wmo:42046:1,2002-11-03T09:30:00Z,27.8903,-94.0367,2.0,340.5716499,11.12340326,-99999.0,'11111222,11111222,99999999' 
TABS,ioos:station:wmo:42046:1,2002-11-03T10:00:00Z,27.8903,-94.0367,2.0,332.360908,10.9720782,-99999.0,'11111222,11111222,99999999' 
TABS,ioos:station:wmo:42046:1,2002-11-03T10:30:00Z,27.8903,-94.0367,2.0,341.2138021,10.30921918,-99999.0,'11111222,11111222,99999999' 
TABS,ioos:station:wmo:42046:1,2002-11-03T11:00:00Z,27.8903,-94.0367,2.0,344.6228362,11.91661445,-99999.0,'11111222,11111222,99999999' 
TABS,ioos:station:wmo:42046:1,2002-11-03T11:30:00Z,27.8903,-94.0367,2.0,329.9933778,10.57779278,-99999.0,'11111222,11111222,99999999' 
TABS,ioos:station:wmo:42046:1,2002-11-03T12:00:00Z,27.8903,-94.0367,2.0,344.9569893,7.590111989,-99999.0,'11133222,11111222,99999999' 
TABS,ioos:station:wmo:42046:1,2002-11-03T12:30:00Z,27.8903,-94.0367,2.0,345.1093599,13.65870052,-99999.0,'11111222,11111222,99999999' 
TABS,ioos:station:wmo:42046:1,2002-11-03T13:00:00Z,27.8903,-94.0367,2.0,335.9078674,11.19523559,-99999.0,'11111222,11111222,99999999' 
TABS,ioos:station:wmo:42046:1,2002-11-03T13:30:00Z,27.8903,-94.0367,2.0,357.22712,12.81500683,-99999.0,'11111222,11111222,99999999' 
TABS,ioos:station:wmo:42046:1,2002-11-03T14:00:00Z,27.8903,-94.0367,2.0,356.457166,11.81257804,-99999.0,'11111222,11111222,99999999' 
TABS,ioos:station:wmo:42046:1,2002-11-03T14:30:00Z,27.8903,-94.0367,2.0,355.2003856,13.14610208,-99999.0,'11111222,11111222,99999999' 
TABS,ioos:station:wmo:42046:1,2002-11-03T15:00:00Z,27.8903,-94.0367,2.0,353.2762236,14.17751741,-99999.0,'11111222,11111222,99999999' 
TABS,ioos:station:wmo:42046:1,2002-11-03T15:30:00Z,27.8903,-94.0367,2.0,347.5578182,14.38792897,-99999.0,'11111222,11111222,99999999' 
TABS,ioos:station:wmo:42046:1,2002-11-03T16:00:00Z,27.8903,-94.0367,2.0,8.15666087,15.36543198,-99999.0,'11111222,11111222,99999999' 
TABS,ioos:station:wmo:42046:1,2002-11-03T16:30:00Z,27.8903,-94.0367,2.0,7.137705562,17.0622185,-99999.0,'11111222,11111222,99999999' 
TABS,ioos:station:wmo:42046:1,2002-11-03T17:00:00Z,27.8903,-94.0367,2.0,12.15182573,18.28980317,-99999.0,'11111222,11111222,99999999' 
TABS,ioos:station:wmo:42046:1,2002-11-03T17:30:00Z,27.8903,-94.0367,2.0,17.59713338,20.54119033,-99999.0,'11111222,11111222,99999999' 
TABS,ioos:station:wmo:42046:1,2002-11-03T18:00:00Z,27.8903,-94.0367,2.0,11.91422364,18.60068816,-99999.0,'11111222,11111222,99999999' 
TABS,ioos:station:wmo:42046:1,2002-11-03T18:30:00Z,27.8903,-94.0367,2.0,20.56942536,20.29376505,-99999.0,'11111222,11111222,99999999' 
TABS,ioos:station:wmo:42046:1,2002-11-03T19:00:00Z,27.8903,-94.0367,2.0,19.88532907,16.49339868,-99999.0,'11111222,11111222,99999999' 
TABS,ioos:station:wmo:42046:1,2002-11-03T19:30:00Z,27.8903,-94.0367,2.0,34.48038387,21.92106293,-99999.0,'11111222,11111222,99999999' 
TABS,ioos:station:wmo:42046:1,2002-11-03T20:00:00Z,27.8903,-94.0367,2.0,38.39230394,22.73602428,-99999.0,'11111222,11111222,99999999' 
TABS,ioos:station:wmo:42046:1,2002-11-03T20:30:00Z,27.8903,-94.0367,2.0,40.86438703,18.43277516,-99999.0,'11111222,11111222,99999999' 
TABS,ioos:station:wmo:42046:1,2002-11-03T21:00:00Z,27.8903,-94.0367,2.0,29.85365284,15.0466807,-99999.0,'11111222,11111222,99999999' 
TABS,ioos:station:wmo:42046:1,2002-11-03T21:30:00Z,27.8903,-94.0367,2.0,42.78201644,16.07751225,-99999.0,'11111222,11111222,99999999' 
TABS,ioos:station:wmo:42046:1,2002-11-03T22:00:00Z,27.8903,-94.0367,2.0,28.53462694,14.44458722,-99999.0,'11111222,11111222,99999999' 
TABS,ioos:station:wmo:42046:1,2002-11-03T22:30:00Z,27.8903,-94.0367,2.0,26.48453934,9.530131164,-99999.0,'11133222,11111222,99999999' 
TABS,ioos:station:wmo:42046:1,2002-11-03T23:00:00Z,27.8903,-94.0367,2.0,3.424073697,5.860460733,-99999.0,'11133222,11111222,99999999' 
TABS,ioos:station:wmo:42046:1,2002-11-03T23:30:00Z,27.8903,-94.0367,2.0,348.4765157,6.307138812,-99999.0,'11133222,11111222,99999999' 
TABS,ioos:station:wmo:42046:1,2002-11-04T00:00:00Z,27.8903,-94.0367,2.0,333.0317376,3.175295262,-99999.0,'11133222,11111222,99999999' 
TABS,ioos:station:wmo:42046:1,2002-11-04T00:30:00Z,27.8903,-94.0367,2.0,320.6045493,6.444261013,-99999.0,'11133222,11111222,99999999' 
TABS,ioos:station:wmo:42046:1,2002-11-04T01:00:00Z,27.8903,-94.0367,2.0,312.8519687,6.601946683,-99999.0,'11133222,11111222,99999999' 
TABS,ioos:station:wmo:42046:1,2002-11-04T01:30:00Z,27.8903,-94.0367,2.0,320.1500343,9.847319432,-99999.0,'11133222,11111222,99999999' 
TABS,ioos:station:wmo:42046:1,2002-11-04T02:00:00Z,27.8903,-94.0367,2.0,311.3598565,10.24543801,-99999.0,'11111222,11111222,99999999' 
TABS,ioos:station:wmo:42046:1,2002-11-04T02:30:00Z,27.8903,-94.0367,2.0,314.1462399,11.8594983,-99999.0,'11111222,11111222,99999999' 
TABS,ioos:station:wmo:42046:1,2002-11-04T03:00:00Z,27.8903,-94.0367,2.0,310.075041,11.44790374,-99999.0,'11111222,11111222,99999999' 
TABS,ioos:station:wmo:42046:1,2002-11-04T03:30:00Z,27.8903,-94.0367,2.0,312.8073223,14.5983047,-99999.0,'11111222,11111222,99999999' 
TABS,ioos:station:wmo:42046:1,2002-11-04T04:00:00Z,27.8903,-94.0367,2.0,310.0456044,12.85373487,-99999.0,'11111222,11111222,99999999' 
TABS,ioos:station:wmo:42046:1,2002-11-04T04:30:00Z,27.8903,-94.0367,2.0,315.2278588,17.80508916,-99999.0,'11111222,11111222,99999999' 
TABS,ioos:station:wmo:42046:1,2002-11-04T05:00:00Z,27.8903,-94.0367,2.0,303.8832211,15.65927521,-99999.0,'11111222,11111222,99999999' 
TABS,ioos:station:wmo:42046:1,2002-11-04T05:30:00Z,27.8903,-94.0367,2.0,314.5407348,15.86798664,-99999.0,'11111222,11111222,99999999' 
TABS,ioos:station:wmo:42046:1,2002-11-04T06:00:00Z,27.8903,-94.0367,2.0,306.8213274,16.40200597,-99999.0,'11111222,11111222,99999999' 
TABS,ioos:station:wmo:42046:1,2002-11-04T06:30:00Z,27.8903,-94.0367,2.0,307.3746759,17.26466913,-99999.0,'11111222,11111222,99999999' 
TABS,ioos:station:wmo:42046:1,2002-11-04T07:00:00Z,27.8903,-94.0367,2.0,306.8566084,16.82200048,-99999.0,'11111222,11111222,99999999' 
TABS,ioos:station:wmo:42046:1,2002-11-04T07:30:00Z,27.8903,-94.0367,2.0,307.1327535,17.46018328,-99999.0,'11111222,11111222,99999999' 
TABS,ioos:station:wmo:42046:1,2002-11-04T08:00:00Z,27.8903,-94.0367,2.0,307.9826973,16.37908728,-99999.0,'11111222,11111222,99999999' 
TABS,ioos:station:wmo:42046:1,2002-11-04T08:30:00Z,27.8903,-94.0367,2.0,307.0261059,19.11407073,-99999.0,'11111222,11111222,99999999' 
TABS,ioos:station:wmo:42046:1,2002-11-04T09:00:00Z,27.8903,-94.0367,2.0,303.4161506,19.12073482,-99999.0,'11111222,11111222,99999999' 
TABS,ioos:station:wmo:42046:1,2002-11-04T09:30:00Z,27.8903,-94.0367,2.0,302.2118406,17.0904564,-99999.0,'11111222,11111222,99999999' 
TABS,ioos:station:wmo:42046:1,2002-11-04T10:00:00Z,27.8903,-94.0367,2.0,305.6463385,18.44620828,-99999.0,'11111222,11111222,99999999' 
TABS,ioos:station:wmo:42046:1,2002-11-04T10:30:00Z,27.8903,-94.0367,2.0,312.1529393,17.50836657,-99999.0,'11111222,11111222,99999999' 
TABS,ioos:station:wmo:42046:1,2002-11-04T11:00:00Z,27.8903,-94.0367,2.0,306.5643619,16.48423489,-99999.0,'11111222,11111222,99999999' 
TABS,ioos:station:wmo:42046:1,2002-11-04T11:30:00Z,27.8903,-94.0367,2.0,313.6501632,16.8055229,-99999.0,'11111222,11111222,99999999' 
TABS,ioos:station:wmo:42046:1,2002-11-04T12:00:00Z,27.8903,-94.0367,2.0,317.1402606,15.90685387,-99999.0,'11111222,11111222,99999999' 
TABS,ioos:station:wmo:42046:1,2002-11-04T12:30:00Z,27.8903,-94.0367,2.0,320.2912391,17.48346076,-99999.0,'11111222,11111222,99999999' 
TABS,ioos:station:wmo:42046:1,2002-11-04T13:00:00Z,27.8903,-94.0367,2.0,320.7068463,19.91181057,-99999.0,'11111222,11111222,99999999' 
TABS,ioos:station:wmo:42046:1,2002-11-04T13:30:00Z,27.8903,-94.0367,2.0,332.0162885,17.51825619,-99999.0,'11111222,11111222,99999999' 
TABS,ioos:station:wmo:42046:1,2002-11-04T14:00:00Z,27.8903,-94.0367,2.0,333.6800731,20.92978739,-99999.0,'11111222,11111222,99999999' 
TABS,ioos:station:wmo:42046:1,2002-11-04T14:30:00Z,27.8903,-94.0367,2.0,335.4625394,20.22671501,-99999.0,'11111222,11111222,99999999' 
TABS,ioos:station:wmo:42046:1,2002-11-04T15:00:00Z,27.8903,-94.0367,2.0,333.3982087,20.76860371,-99999.0,'11111222,11111222,99999999' 
TABS,ioos:station:wmo:42046:1,2002-11-04T15:30:00Z,27.8903,-94.0367,2.0,338.5024416,17.8734272,-99999.0,'11111222,11111222,99999999' 
TABS,ioos:station:wmo:42046:1,2002-11-04T16:00:00Z,27.8903,-94.0367,2.0,339.8089798,20.22277924,-99999.0,'11111222,11111222,99999999' 